This is the latest recevied weather packets stored in our database for station/object KC5DAQ-29. If no packets are shown the sender has not sent any weather packets the latest 1 day(s).
| Time | Temp. | Humidity | Pressure | Rain* | Wind** | Luminosity | Snow |
|---|---|---|---|---|---|---|---|
| 1777994809 | 25° C | 100% | 1006.9 hPa | 0 mm | 1.79 m/s, 193° | 102 W/m² | - |
| 1777994749 | 25° C | 100% | 1007 hPa | 0 mm | 1.79 m/s, 204° | 102 W/m² | - |
| 1777994688 | 25° C | 100% | 1006.9 hPa | 0 mm | 1.79 m/s, 202° | 102 W/m² | - |
| 1777994628 | 25° C | 100% | 1006.9 hPa | 0 mm | 1.79 m/s, 261° | 100 W/m² | - |
| 1777994569 | 25° C | 100% | 1006.8 hPa | 0 mm | 1.79 m/s, 179° | 95 W/m² | - |
| 1777994508 | 25° C | 100% | 1006.9 hPa | 0 mm | 1.79 m/s, 159° | 100 W/m² | - |
| 1777994447 | 25° C | 100% | 1006.8 hPa | 0 mm | 1.34 m/s, 221° | 100 W/m² | - |
| 1777994389 | 25° C | 100% | 1006.8 hPa | 0 mm | 1.34 m/s, 107° | 107 W/m² | - |
| 1777994328 | 25° C | 100% | 1006.8 hPa | 0 mm | 1.34 m/s, 216° | 107 W/m² | - |
| 1777994268 | 25° C | 100% | 1006.8 hPa | 0 mm | 0.89 m/s, 188° | 107 W/m² | - |
| 1777994207 | 25° C | 100% | 1006.9 hPa | 0 mm | 1.34 m/s, 178° | 107 W/m² | - |
| 1777994148 | 25° C | 100% | 1006.9 hPa | 0 mm | 1.79 m/s, 164° | 107 W/m² | - |
| 1777994087 | 25° C | 100% | 1006.9 hPa | 0 mm | 1.34 m/s, 192° | 107 W/m² | - |
| 1777994028 | 25° C | 100% | 1006.8 hPa | 0 mm | 1.79 m/s, 173° | - | - |
| 1777993967 | 25° C | 100% | 1006.9 hPa | 0 mm | 1.79 m/s, 148° | - | - |
| 1777993906 | 25° C | 100% | 1006.8 hPa | 0 mm | 1.79 m/s, 257° | 137 W/m² | - |
| 1777993847 | 25° C | 100% | 1006.9 hPa | 0 mm | 1.79 m/s, 202° | 137 W/m² | - |
| 1777993787 | 25° C | 100% | 1006.9 hPa | 0 mm | 1.79 m/s, 202° | 137 W/m² | - |
| 1777993728 | 25° C | 100% | 1006.9 hPa | 0 mm | 1.79 m/s, 202° | 137 W/m² | - |
| 1777993668 | 25° C | 100% | 1006.9 hPa | 0 mm | 1.79 m/s, 202° | 137 W/m² | - |
| 1777993608 | 25° C | 100% | 1006.9 hPa | 0 mm | 1.79 m/s, 195° | 137 W/m² | - |
| 1777993548 | 25° C | 100% | 1006.9 hPa | 0 mm | 1.79 m/s, 199° | 137 W/m² | - |
| 1777993486 | 25° C | 100% | 1006.9 hPa | 0 mm | 1.79 m/s, 186° | 137 W/m² | - |
| 1777993426 | 25° C | 100% | 1006.9 hPa | 0 mm | 1.79 m/s, 186° | 137 W/m² | - |
| 1777993367 | 25° C | 100% | 1006.8 hPa | 0 mm | 1.34 m/s, 220° | 137 W/m² | - |
* Rain latest hour (hover to see other rain measurements)
** Current wind speed in m/s (hover to see current wind gust speed)